MOZ.5/SAFIR/RUBIN 5/SL-8 - Orbit

View from above orbital plane
View from above orbital plane
View from above satellite
View from above satellite

Ground track
Ground track

The orbit data is extracted from the following two-line orbital elements,

1 28898U 05043G   13141.49403598  .00000322  00000-0  77564-4 0  5210
2 28898 097.8563 347.5257 0020423 183.6439 234.3504 14.59087130402806
Epoch (UTC): 21 May 2013 11:51:24
Eccentricity: 0.0020423
inclination: 97.8563°
perigee height: 681 km
apogee height: 710 km
right ascension of ascending node: 347.5257°
argument of perigee: 183.6439°
revolutions per day: 14.59087130
mean anomaly at epoch: 234.3504°
orbit number at epoch: 40280

The dashed part of the orbit path shows where the satellite is in the earth's shadow,  

Developed and maintained by Chris Peat, Heavens-Above GmbH. Please read the updated FAQ before sending e-mail. Imprint. DLR